KK4PTE Weather Reports


time (UTC)temp
C
wind
direction
speed
KPH
gust
KPH
rain 1hr
cm
rain 24hr
cm
rain mn
cm
humidity
%
barometer
mb
20260504081541 11 180 1.6 4.8 0.00 0.03 0.00 71 1015.3
20260504050007 10 180 0.0 0.0 0.00 0.03 0.03 73 1016.6
20260504044512 10 180 0.0 0.0 0.00 0.03 0.03 74 1016.6
20260504043012 10 180 0.0 0.0 0.00 0.03 0.03 74 1016.8
20260504041518 10 180 0.0 0.0 0.00 0.03 0.03 75 1016.8
20260504040005 10 180 0.0 0.0 0.00 0.03 0.03 74 1016.8
20260504034630 10 180 0.0 0.0 0.00 0.03 0.03 73 1016.8
20260504033003 10 180 0.0 0.0 0.00 0.03 0.03 73 1016.9
20260504031503 10 180 0.0 0.0 0.00 0.03 0.03 73 1017.0
20260504030002 10 180 0.0 0.0 0.00 0.03 0.03 72 1017.0
20260504024503 11 180 0.0 0.0 0.00 0.03 0.03 73 1017.1
20260504023002 11 180 0.0 0.0 0.00 0.03 0.03 72 1017.0
20260504021500 11 180 0.0 0.0 0.00 0.03 0.03 71 1016.9
20260504020132 11 180 0.0 0.0 0.00 0.03 0.03 68 1016.8
20260504014603 12 180 0.0 0.0 0.00 0.03 0.03 68 1016.8
20260504013130 12 180 0.0 0.0 0.00 0.03 0.03 66 1016.6
20260504011600 13 180 0.0 0.0 0.00 0.03 0.03 62 1016.6
20260504010101 14 180 0.0 0.0 0.00 0.03 0.03 59 1016.7
20260504004558 15 180 0.0 0.0 0.00 0.03 0.03 55 1016.7
20260504003058 16 180 0.0 0.0 0.00 0.03 0.03 52 1016.7
20260504001559 17 218 0.0 0.0 0.00 0.03 0.03 47 1016.6
20260504000106 18 249 0.0 0.0 0.00 0.03 0.03 42 1016.6
20260503234555 19 263 0.0 3.2 0.00 0.03 0.03 40 1016.7
20260503233054 19 249 0.0 4.8 0.00 0.03 0.03 39 1016.6
20260503231552 20 231 0.0 8.0 0.00 0.03 0.03 37 1016.7
20260503230048 20 233 1.6 12.9 0.00 0.03 0.03 40 1016.9
20260503224544 20 297 4.8 11.3 0.00 0.03 0.03 37 1017.2
20260503223043 20 254 3.2 9.7 0.00 0.03 0.03 38 1017.5
20260503221556 20 221 3.2 19.3 0.00 0.03 0.03 38 1017.6
20260503220039 20 279 1.6 8.0 0.00 0.03 0.03 39 1017.7
20260503214540 20 189 4.8 14.5 0.00 0.03 0.03 39 1017.8
20260503213037 19 210 3.2 14.5 0.00 0.03 0.03 38 1017.9
20260503211530 20 158 3.2 9.7 0.00 0.03 0.03 40 1018.0
20260503210028 19 230 3.2 14.5 0.00 0.03 0.03 38 1018.4
20260503204527 20 239 4.8 14.5 0.00 0.03 0.03 41 1018.6
20260503203032 19 286 4.8 17.7 0.00 0.03 0.03 39 1018.8
20260503201520 18 180 3.2 16.1 0.00 0.03 0.03 37 1019.2
20260503200018 18 180 6.4 19.3 0.00 0.03 0.03 38 1019.3
20260503194515 18 180 3.2 17.7 0.00 0.03 0.03 40 1020.0
20260503193025 18 180 8.0 14.5 0.00 0.03 0.03 37 1020.0
20260503191527 18 180 3.2 17.7 0.00 0.03 0.03 40 1020.3
20260503190023 18 180 4.8 16.1 0.00 0.03 0.03 42 1020.5
20260503184507 18 180 4.8 9.7 0.00 0.03 0.03 42 1020.7
20260503183005 17 180 3.2 9.7 0.00 0.03 0.03 43 1020.9
20260503181505 17 180 1.6 12.9 0.00 0.03 0.03 43 1021.1
20260503180005 17 180 1.6 8.0 0.00 0.03 0.03 42 1021.2
20260503174604 16 180 4.8 9.7 0.00 0.03 0.03 40 1021.4
20260503173104 16 180 9.7 16.1 0.00 0.03 0.03 37 1021.6
20260503171556 16 180 0.0 6.4 0.00 0.03 0.03 46 1021.7
20260503170105 15 180 1.6 8.0 0.00 0.03 0.03 42 1021.8